Tracking 25710 objects as of 5-Jul-2022
HD Live streaming from Space Station
objects crossing your sky now

FENGYUN 1C DEB

Track FENGYUN 1C DEB now!
10-day predictions


NORAD ID: 31097
Int'l Code: 1999-025BGT
Perigee: 812.1 km
Apogee: 840.9 km
Inclination: 98.9 °
Period: 101.3 minutes
Semi major axis: 7197 km
RCS: 0.0109 m2 (small)
Launch date: May 10, 1999
Source: People's Republic of China (PRC)
Launch site: Taiyaun Space Center, China (TSC)

Note: This is SATELLITE DEBRIS
aabbcc
Your satellite tracking list
Your tracking list is empty




NASA's NSSDC Master Catalog

Two Line Element Set (TLE):
1 31097U 99025BGT 22185.89597189  .00001407  00000-0  65898-3 0  9990
2 31097  98.8707 267.2718 0019956   1.5892  67.9771 14.21773548790554
Source of the keplerian elements: AFSPC